Lid_Strength_Index
4 3 2 2 2 2 2 2 2 2 3 3 3 3 3 3 3 3 3 2 2 2 2 2 2 1 3 8 8 4 3 3 3 3 5 5 6 7 9 9 9 11 10 8 9 9 9
4 3 3 3 3 3 3 2 2 3 3 3 4 4 3 3 3 3 3 2 2 2 2 2 2 1 6 11 4 3 3 3 2 3 4 4 5 4 7 8 9 7 8 9 9 9 9
4 3 3 3 3 3 3 3 3 3 4 4 4 3 3 3 3 3 3 3 2 3 2 2 2 3 6 7 3 3 3 2 2 2 4 3 3 5 6 8 6 7 10 9 9 9 9
4 3 3 3 3 3 3 3 3 3 4 4 4 4 3 3 3 3 3 3 2 2 2 2 1 4 9 3 4 3 2 3 2 2 2 2 2 4 6 6 7 10 10 13 10 8 8
4 4 3 3 3 3 3 3 3 3 3 4 4 3 4 3 3 3 3 2 2 2 2 1 4 6 9 2 5 3 3 4 3 2 2 2 3 6 7 10 12 11 15 13 11 7 8
4 4 3 3 3 3 3 3 3 3 4 4 3 4 4 3 3 3 2 2 2 4 4 3 4 10 7 8 5 4 3 3 5 5 5 6 7 10 10 12 17 15 14 12 12 9 8
4 4 4 4 3 4 3 3 3 3 4 4 4 4 4 4 3 3 5 9 11 12 10 11 10 9 7 5 4 5 3 5 6 8 12 8 12 14 12 10 10 11 12 13 11 8 10
4 4 4 4 3 4 3 3 3 4 4 5 5 4 4 4 4 3 8 11 9 9 13 9 8 7 6 5 8 6 4 9 9 13 11 12 15 11 9 9 10 11 13 13 11 9 10
4 4 4 4 4 4 3 3 4 4 5 5 5 4 4 4 4 7 9 9 6 6 13 10 7 8 8 6 9 8 7 8 11 12 13 14 12 10 10 11 12 12 13 13 13 11 9
4 4 4 4 4 4 3 3 4 4 5 5 5 4 4 4 8 9 10 6 5 6 17 12 11 9 7 8 10 6 6 8 10 13 13 13 11 11 12 13 12 15 10 11 13 14 17
4 4 4 4 4 3 3 3 4 5 5 4 5 4 5 4 10 10 8 6 6 8 27 13 11 6 8 10 9 9 6 9 12 12 13 15 13 13 14 13 11 14 11 12 12 14 15
4 4 4 4 4 3 3 3 5 5 5 4 5 5 5 8 9 8 7 7 9 20 26 16 11 12 12 10 10 9 9 8 8 11 12 13 11 12 12 10 10 10 12 12 13 14 19
3 3 4 4 3 2 3 4 5 5 5 5 5 5 7 7 11 8 8 10 20 24 16 18 15 13 13 13 12 12 13 14 15 20 20 16 15 12 11 13 11 11 14 19 20 20 23
3 3 4 4 3 3 3 4 5 6 5 5 5 5 6 8 9 9 10 16 25 24 22 13 14 13 14 13 13 14 15 17 13 15 19 23 23 15 12 14 15 13 14 20 25 24 22
3 3 3 3 3 4 4 4 5 6 5 5 5 9 9 9 9 10 14 22 24 21 15 15 15 19 19 14 15 16 17 17 15 15 21 22 21 13 13 12 11 13 16 12 17 19 19
3 3 3 3 4 4 4 4 5 5 5 6 11 11 10 9 10 11 18 20 23 15 14 15 21 17 22 18 18 17 18 15 15 14 14 18 21 15 14 11 11 12 11 17 16 22 23
3 3 3 3 4 4 4 4 5 6 6 6 11 16 10 10 11 17 23 25 18 13 12 16 19 18 18 17 17 20 18 15 14 15 14 16 18 18 15 16 15 15 16 15 14 16 21
3 3 3 4 4 4 4 4 5 6 6 8 13 20 10 10 19 16 23 22 13 15 12 12 13 14 19 17 20 18 18 16 13 15 18 15 17 21 19 14 12 13 16 18 21 19 17
3 3 4 4 4 4 4 4 5 6 7 11 15 17 11 13 24 26 19 16 15 15 14 14 14 13 18 21 21 20 17 14 13 15 17 15 19 23 21 16 14 17 17 18 18 18 18
3 3 3 4 4 4 4 5 5 6 7 11 16 21 18 16 18 19 21 21 20 14 14 12 13 13 17 22 18 20 17 15 14 15 13 14 17 19 22 20 17 20 19 19 20 23 21
3 3 4 3 4 4 4 5 5 6 7 11 17 21 22 25 22 18 17 17 18 19 14 13 15 18 19 22 20 24 17 16 15 14 15 15 19 18 17 16 17 19 20 20 22 22 22
3 3 4 4 4 4 4 5 5 6 7 13 17 19 21 24 18 17 16 18 17 16 16 17 20 17 20 22 20 20 18 17 18 16 17 15 20 17 19 15 17 20 20 19 21 22 21
3 3 3 4 4 4 4 5 5 6 7 14 15 16 16 18 18 20 18 17 17 16 15 14 15 16 20 19 16 15 15 16 16 18 17 17 18 19 21 17 17 23 22 21 22 22 22
3 3 3 3 4 4 4 5 5 5 8 12 13 14 18 25 21 17 16 16 16 16 16 15 14 19 15 13 14 15 16 16 16 16 15 18 18 19 22 20 26 19 18 19 20 22 22
3 3 3 3 4 4 4 5 5 5 6 11 13 14 18 25 20 16 16 16 16 16 16 15 14 13 13 15 20 23 24 22 22 17 16 14 17 21 21 21 18 19 19 21 22 23 21
3 3 3 4 4 4 4 5 5 5 7 11 12 12 15 20 21 16 18 16 20 21 19 15 13 12 13 17 24 28 25 27 22 21 15 15 16 20 23 25 26 20 19 17 17 22 20
3 3 4 4 4 4 5 5 5 6 7 11 13 13 14 20 18 19 20 18 17 19 20 16 15 15 14 23 26 24 27 26 24 23 21 20 22 25 25 22 20 19 18 17 25 24 20
3 3 4 4 4 4 5 5 5 6 7 11 14 13 14 17 16 17 16 18 17 18 22 17 17 17 19 23 21 21 24 24 24 22 19 20 23 24 26 24 24 18 19 24 21 19 20
3 3 4 4 4 5 5 5 5 6 7 10 14 13 13 17 18 15 14 13 13 14 16 15 15 16 14 23 22 20 25 25 24 24 17 21 19 21 21 21 18 18 20 19 19 20 20